Weather observations for the past three days for
Oklahoma City, Wiley Post Airport
Imperial (Metric)
Date Time (cdt) Wind (mph) Vis. (mi.) Weather Sky Cond. Temperature (ºF) Relative Humidity Wind Chill (°F) Heat Index (°F) Pressure Precipitation (in)
Air Dwpt 6 hour altimeter (in) sea level (mb) 1 hr 3 hr 6 hr
Max. Min.
21 18:53 S 12 G 23 10.00 A Few Clouds FEW060 91 66.9 95 86 45% 94 30.05 1015.6
21 17:53 S 15 10.00 Fair CLR 93 66.9 42% 97 30.06 1016.0
21 16:53 S 14 G 23 10.00 A Few Clouds FEW055 93 66.9 42% 97 30.08 1016.8
21 15:53 S 14 G 31 10.00 A Few Clouds FEW055 91.9 66.9 44% 95 30.1 1017.4
21 14:53 S 12 G 35 10.00 Fair CLR 93 68 44% 97 30.12 1018.1
21 13:53 S 8 G 25 10.00 Partly Cloudy FEW044 SCT055 89.1 69.1 52% 94 30.15 1019.0
21 12:53 S 12 G 21 10.00 A Few Clouds FEW038 90 71.1 90 77 54% 96 30.17 1019.8
21 11:53 SW 15 G 24 10.00 Mostly Cloudy SCT030 SCT036 BKN045 86 72 63% 92 30.19 1020.5
21 10:53 S 14 G 22 10.00 A Few Clouds FEW031 FEW043 84.9 72 65% 91 30.2 1020.8
21 09:53 S 13 10.00 Fair CLR 82 71.1 69% 86 30.2 1021.0
21 08:53 S 13 G 23 10.00 Fair CLR 79 70 74% 82 30.2 1020.9
21 07:53 S 14 10.00 Fair CLR 78.1 70 76% 80 30.19 1020.6
21 06:53 S 13 10.00 Fair CLR 77 71.1 80.1 75.9 82% 79 30.18 1020.3
21 05:53 S 12 10.00 Fair CLR 77 71.1 82% 79 30.17 1020.0
21 04:53 S 12 10.00 Fair CLR 77 71.1 82% 79 30.17 1019.7
21 03:53 S 12 10.00 Fair CLR 78.1 71.1 79% 80 30.16 1019.7
21 02:53 SE 10 10.00 Fair CLR 78.1 71.1 79% 80 30.16 1019.7
21 01:53 S 10 10.00 Fair CLR 79 71.1 77% 82 30.17 1020.0
21 00:53 SE 12 10.00 Fair CLR 80.1 71.1 87.1 80.1 74% 84 30.17 1020.1
20 23:53 SE 9 10.00 Fair CLR 81 71.1 72% 85 30.17 1019.8
20 22:53 SE 9 10.00 Fair CLR 82 71.1 69% 86 30.16 1019.7
20 21:53 SE 10 10.00 Fair CLR 82.9 71.1 67% 88 30.15 1019.2
20 20:53 SE 10 10.00 Fair CLR 84 70 63% 88 30.14 1018.8
20 19:53 SE 10 10.00 Fair CLR 84.9 70 61% 89 30.13 1018.7
20 18:53 SE 9 10.00 A Few Clouds FEW065 87.1 69.1 91 84 55% 91 30.14 1018.8
20 17:53 S 13 10.00 A Few Clouds FEW048 87.1 69.1 55% 91 30.16 1019.4
20 16:53 SE 12 10.00 Partly Cloudy SCT050 90 69.1 50% 95 30.17 1020.0
20 15:53 Vrbl 6 10.00 A Few Clouds FEW050 88 69.1 54% 92 30.19 1020.7
20 14:53 SE 6 10.00 Fair CLR 88 68 52% 92 30.21 1021.3
20 13:53 E 9 10.00 A Few Clouds FEW038 89.1 68 50% 93 30.23 1021.9
20 12:53 SE 8 10.00 A Few Clouds FEW033 84.9 68 84.9 75.9 57% 88 30.24 1022.5
20 11:53 S 8 10.00 Partly Cloudy SCT027 82.9 71.1 67% 88 30.25 1022.7
20 10:53 SE 9 10.00 A Few Clouds FEW025 82 71.1 69% 86 30.25 1022.6
20 09:53 SE 10 10.00 A Few Clouds FEW022 80.1 71.1 74% 84 30.25 1022.6
20 08:53 SE 10 10.00 Fair CLR 78.1 71.1 79% 80 30.23 1022.1
20 07:53 SE 8 10.00 Fair CLR 77 70 79% 79 30.22 1021.6
20 06:53 SE 9 10.00 Mostly Cloudy BKN110 75.9 68 77 73 77% 77 30.2 1021.0
20 05:53 SE 9 10.00 Overcast OVC100 75.9 68 77% 77 30.19 1020.6
20 04:53 SE 7 10.00 Mostly Cloudy BKN110 75.9 68 77% 77 30.17 1020.0
20 03:53 SE 6 10.00 Fair CLR 75 66.9 76% 76 30.16 1019.6
20 02:53 SE 6 10.00 Fair CLR 73 66 79% 30.16 1019.7
20 01:53 S 9 10.00 Fair CLR 75.9 66 72% 77 30.18 1020.1
20 00:53 S 8 10.00 Fair CLR 75.9 66 89.1 75.9 72% 77 30.18 1020.2
19 23:53 SE 9 10.00 Fair CLR 79 66 65% 81 30.17 1020.2
19 22:53 S 12 10.00 Fair CLR 80.1 66 62% 82 30.16 1019.8
19 21:53 S 14 10.00 Fair CLR 82 66.9 60% 85 30.14 1019.0
19 20:53 SE 14 10.00 Overcast OVC090 82.9 68 61% 86 30.12 1018.4
19 19:53 SE 13 10.00 Overcast OVC085 86 68 55% 89 30.1 1017.8
19 18:53 SE 13 10.00 Mostly Cloudy SCT050 BKN075 88 66.9 91 82.9 50% 91 30.09 1017.4
19 17:53 SE 9 10.00 A Few Clouds FEW050 FEW070 89.1 66.9 48% 92 30.09 1017.1
19 16:53 SE 12 G 18 10.00 A Few Clouds FEW070 90 66.9 47% 93 30.09 1017.3
19 15:53 E 6 G 18 10.00 A Few Clouds FEW060 89.1 64.9 45% 91 30.1 1017.6
19 14:53 Calm 10.00 A Few Clouds FEW044 87.1 66.9 51% 90 30.11 1018.0
19 13:53 E 9 G 17 10.00 A Few Clouds FEW041 87.1 69.1 55% 91 30.13 1018.5
19 12:53 Vrbl 3 10.00 Partly Cloudy FEW028 SCT060 82.9 69.1 84.9 71.1 63% 87 30.15 1019.1
19 11:53 Vrbl 6 10.00 A Few Clouds FEW050 81 70 69% 84 30.15 1019.4
19 10:53 Vrbl 3 10.00 Overcast SCT026 SCT038 OVC055 80.1 70 71% 83 30.15 1019.3
19 09:53 S 8 10.00 Mostly Cloudy FEW023 SCT048 BKN055 79 70 74% 82 30.14 1019.0
19 08:53 S 7 10.00 Partly Cloudy FEW019 SCT039 77 69.1 77% 79 30.13 1018.4
19 07:53 N 3 10.00 Mostly Cloudy BKN019 73 68 84% 30.1 1017.8
19 06:53 N 8 10.00 Overcast BKN019 BKN029 OVC035 71.1 66 79 71.1 84% 30.09 1017.2
19 05:53 N 3 10.00 Overcast BKN020 BKN060 OVC080 75 70 84% 75 30.06 1016.2
19 04:53 Calm 10.00 Mostly Cloudy FEW021 BKN049 75 69.1 82% 75 30.03 1015.1
19 03:53 SE 10 10.00 Fair CLR 75.9 69.1 79% 77 29.99 1013.8
19 02:53 S 15 G 23 10.00 Fair CLR 77 69.1 77% 79 29.97 1013.2
19 01:53 S 23 G 32 10.00 Fair and Breezy CLR 78.1 69.1 74% 80 29.93 1011.8
19 00:53 SE 16 G 30 10.00 Fair CLR 79 68 87.1 79 69% 81 29.93 1011.9
18 23:53 SE 21 G 29 10.00 Fair and Breezy CLR 80.1 69.1 69% 83 29.94 1012.0
18 22:53 SE 22 G 29 10.00 Partly Cloudy and Breezy SCT070 82.9 69.1 63% 87 29.93 1011.8
18 21:53 SE 15 G 26 10.00 A Few Clouds FEW065 82.9 68 61% 86 29.9 1010.7
18 20:53 S 17 G 28 10.00 Fair CLR 84 69.1 61% 88 29.86 1009.4
18 19:53 S 21 G 31 10.00 Mostly Cloudy and Breezy BKN055 84.9 69.1 59% 89 29.84 1008.5
Date Time (cdt) Wind (mph) Vis. (mi.) Weather Sky Cond. Air Dwpt Max. Min. Relative Humidity Wind Chill (°F) Heat Index (°F) altimeter (in) sea level (mb) 1 hr 3 hr 6 hr
6 hour
Temperature (ºF) Pressure Precipitation (in)